QPF
0.00 0.00 0.00 0.01 0.01 0.01 0.01 0.01 0.01 0.01 0.01 0.01 0.01 0.01 0.01 0.01 0.01 0.01 0.01 0.00 0.00 0.00 0.00 0.01 0.01 0.01 0.01 0.01 0.01 0.01 0.01 0.02 0.02 0.02 0.02 0.01 0.01 0.02 0.04 0.03 0.01 0.01 0.01
0.00 0.00 0.00 0.00 0.01 0.01 0.01 0.01 0.01 0.01 0.01 0.01 0.01 0.01 0.01 0.01 0.01 0.01 0.01 0.01 0.01 0.00 0.01 0.00 0.01 0.01 0.01 0.01 0.01 0.01 0.01 0.01 0.02 0.01 0.01 0.01 0.01 0.01 0.02 0.04 0.03 0.03 0.03
0.00 0.00 0.00 0.00 0.00 0.00 0.01 0.01 0.01 0.01 0.01 0.01 0.01 0.01 0.01 0.01 0.01 0.01 0.01 0.01 0.01 0.01 0.01 0.01 0.00 0.00 0.01 0.01 0.01 0.01 0.01 0.01 0.01 0.01 0.01 0.01 0.01 0.00 0.01 0.03 0.03 0.03 0.06
0.00 0.00 0.00 0.00 0.00 0.00 0.00 0.00 0.00 0.01 0.01 0.01 0.01 0.01 0.01 0.01 0.01 0.01 0.00 0.00 0.01 0.01 0.01 0.01 0.00 0.00 0.00 0.00 0.00 0.01 0.01 0.01 0.01 0.00 0.00 0.00 0.01 0.01 0.01 0.03 0.05 0.05 0.07
0.00 0.00 0.00 0.00 0.00 0.00 0.00 0.00 0.00 0.00 0.01 0.01 0.01 0.01 0.01 0.01 0.00 0.01 0.00 0.00 0.00 0.00 0.01 0.01 0.01 0.01 0.00 0.00 0.00 0.00 0.00 0.01 0.00 0.00 0.00 0.00 0.00 0.01 0.02 0.03 0.06 0.07 0.07
0.00 0.00 0.00 0.00 0.00 0.00 0.00 0.00 0.00 0.00 0.00 0.00 0.00 0.01 0.00 0.00 0.00 0.00 0.00 0.00 0.00 0.00 0.01 0.01 0.01 0.01 0.01 0.00 0.00 0.00 0.00 0.00 0.00 0.00 0.00 0.00 0.00 0.00 0.02 0.03 0.04 0.06 0.06
0.00 0.00 0.00 0.00 0.00 0.00 0.00 0.00 0.00 0.00 0.00 0.00 0.00 0.00 0.00 0.00 0.00 0.00 0.00 0.00 0.00 0.00 0.00 0.00 0.00 0.01 0.00 0.00 0.00 0.00 0.00 0.00 0.00 0.00 0.00 0.00 0.00 0.00 0.02 0.03 0.04 0.06 0.08
0.00 0.00 0.00 0.00 0.00 0.00 0.00 0.00 0.00 0.00 0.00 0.00 0.00 0.00 0.00 0.00 0.00 0.00 0.00 0.00 0.00 0.00 0.00 0.00 0.00 0.00 0.00 0.00 0.00 0.00 0.00 0.00 0.00 0.00 0.00 0.00 0.00 0.00 0.02 0.03 0.04 0.06 0.08
0.00 0.00 0.00 0.00 0.00 0.00 0.00 0.00 0.00 0.00 0.00 0.00 0.00 0.00 0.00 0.00 0.00 0.00 0.00 0.00 0.00 0.00 0.00 0.00 0.00 0.00 0.00 0.00 0.00 0.00 0.00 0.00 0.00 0.00 0.00 0.00 0.00 0.00 0.01 0.02 0.03 0.05 0.07
0.00 0.00 0.00 0.00 0.00 0.00 0.00 0.00 0.00 0.00 0.00 0.00 0.00 0.00 0.00 0.00 0.00 0.00 0.00 0.00 0.00 0.00 0.00 0.00 0.00 0.00 0.00 0.00 0.00 0.00 0.00 0.00 0.00 0.00 0.00 0.00 0.00 0.00 0.01 0.02 0.03 0.04 0.05
0.00 0.00 0.00 0.00 0.00 0.00 0.00 0.00 0.00 0.00 0.00 0.00 0.00 0.00 0.00 0.00 0.00 0.00 0.00 0.00 0.00 0.00 0.00 0.00 0.00 0.00 0.00 0.00 0.00 0.00 0.00 0.00 0.00 0.00 0.00 0.00 0.00 0.00 0.00 0.01 0.01 0.02 0.04
0.00 0.00 0.00 0.00 0.00 0.00 0.00 0.00 0.00 0.00 0.00 0.00 0.00 0.00 0.00 0.00 0.00 0.00 0.00 0.00 0.00 0.00 0.00 0.00 0.00 0.00 0.00 0.00 0.00 0.00 0.00 0.00 0.00 0.00 0.00 0.00 0.00 0.00 0.00 0.00 0.01 0.01 0.03
0.00 0.00 0.00 0.00 0.00 0.00 0.00 0.00 0.00 0.00 0.00 0.00 0.00 0.00 0.00 0.00 0.00 0.00 0.00 0.00 0.00 0.00 0.00 0.00 0.00 0.00 0.00 0.00 0.00 0.00 0.00 0.00 0.00 0.00 0.00 0.00 0.00 0.00 0.00 0.00 0.00 0.01 0.01
0.00 0.00 0.00 0.00 0.00 0.00 0.00 0.00 0.00 0.00 0.00 0.00 0.00 0.00 0.00 0.00 0.00 0.00 0.00 0.00 0.00 0.00 0.00 0.00 0.00 0.00 0.00 0.00 0.00 0.00 0.00 0.00 0.00 0.00 0.00 0.00 0.00 0.00 0.00 0.00 0.00 0.00 0.01
0.00 0.00 0.00 0.00 0.00 0.00 0.00 0.00 0.00 0.00 0.00 0.00 0.00 0.00 0.00 0.00 0.00 0.00 0.00 0.00 0.00 0.00 0.00 0.00 0.00 0.00 0.00 0.00 0.00 0.00 0.00 0.00 0.00 0.00 0.00 0.00 0.00 0.00 0.00 0.00 0.00 0.00 0.00
0.00 0.00 0.00 0.00 0.00 0.00 0.00 0.00 0.00 0.00 0.00 0.00 0.00 0.00 0.00 0.00 0.00 0.00 0.00 0.00 0.00 0.00 0.00 0.00 0.00 0.00 0.00 0.00 0.00 0.00 0.00 0.00 0.00 0.00 0.00 0.00 0.00 0.00 0.00 0.00 0.00 0.00 0.00
0.00 0.00 0.00 0.00 0.00 0.00 0.00 0.00 0.00 0.00 0.00 0.00 0.00 0.00 0.00 0.00 0.00 0.00 0.00 0.00 0.00 0.00 0.00 0.00 0.00 0.00 0.00 0.00 0.00 0.00 0.00 0.00 0.00 0.00 0.00 0.00 0.00 0.00 0.00 0.00 0.00 0.00 0.00
0.00 0.00 0.00 0.00 0.00 0.00 0.00 0.00 0.00 0.00 0.00 0.00 0.00 0.00 0.00 0.00 0.00 0.00 0.00 0.00 0.00 0.00 0.00 0.00 0.00 0.00 0.00 0.00 0.00 0.00 0.00 0.00 0.00 0.00 0.00 0.00 0.00 0.00 0.00 0.00 0.00 0.00 0.00
0.00 0.00 0.00 0.00 0.00 0.00 0.00 0.00 0.00 0.00 0.00 0.00 0.00 0.00 0.00 0.00 0.00 0.00 0.00 0.00 0.00 0.00 0.00 0.00 0.00 0.00 0.00 0.00 0.00 0.00 0.00 0.00 0.00 0.00 0.00 0.00 0.00 0.00 0.00 0.00 0.00 0.00 0.00
0.00 0.00 0.00 0.00 0.00 0.00 0.00 0.00 0.00 0.00 0.00 0.00 0.00 0.00 0.00 0.00 0.00 0.00 0.00 0.00 0.00 0.00 0.00 0.00 0.00 0.00 0.00 0.00 0.00 0.00 0.00 0.00 0.00 0.00 0.00 0.00 0.00 0.00 0.00 0.00 0.00 0.00 0.00
0.00 0.00 0.00 0.00 0.00 0.00 0.00 0.00 0.00 0.00 0.00 0.00 0.00 0.00 0.00 0.00 0.00 0.00 0.00 0.00 0.00 0.00 0.00 0.00 0.00 0.00 0.00 0.00 0.00 0.00 0.00 0.00 0.00 0.00 0.00 0.00 0.00 0.00 0.00 0.00 0.00 0.00 0.00
0.00 0.00 0.00 0.00 0.00 0.00 0.00 0.00 0.00 0.00 0.00 0.00 0.00 0.00 0.00 0.00 0.00 0.00 0.00 0.00 0.00 0.00 0.00 0.00 0.00 0.00 0.00 0.00 0.00 0.01 0.00 0.00 0.00 0.00 0.00 0.00 0.00 0.00 0.00 0.00 0.00 0.00 0.00
0.00 0.00 0.00 0.00 0.00 0.00 0.00 0.00 0.00 0.00 0.00 0.00 0.00 0.00 0.00 0.00 0.00 0.00 0.00 0.00 0.00 0.00 0.00 0.00 0.00 0.00 0.00 0.00 0.00 0.02 0.03 0.01 0.01 0.00 0.00 0.00 0.00 0.00 0.00 0.00 0.00 0.00 0.00
0.00 0.00 0.00 0.00 0.00 0.00 0.00 0.00 0.00 0.00 0.00 0.00 0.00 0.00 0.00 0.00 0.00 0.00 0.00 0.00 0.00 0.00 0.00 0.00 0.00 0.00 0.01 0.01 0.00 0.01 0.02 0.03 0.04 0.02 0.00 0.00 0.00 0.00 0.00 0.00 0.00 0.00 0.00
0.00 0.00 0.00 0.00 0.00 0.00 0.00 0.00 0.00 0.00 0.00 0.00 0.00 0.00 0.00 0.00 0.00 0.00 0.00 0.00 0.00 0.00 0.00 0.00 0.00 0.01 0.01 0.02 0.01 0.01 0.01 0.01 0.03 0.05 0.02 0.00 0.00 0.00 0.00 0.00 0.00 0.00 0.00
0.00 0.00 0.00 0.00 0.00 0.00 0.00 0.00 0.00 0.00 0.00 0.00 0.00 0.00 0.00 0.00 0.00 0.00 0.00 0.00 0.00 0.00 0.00 0.00 0.01 0.01 0.02 0.02 0.02 0.02 0.02 0.02 0.02 0.03 0.03 0.01 0.00 0.00 0.00 0.00 0.00 0.00 0.00
MSLP
1032.64 1032.55 1032.20 1031.67 1031.07 1030.49 1029.99 1029.56 1029.20 1028.85 1028.47 1028.03 1027.53 1027.00 1026.47 1025.99 1025.57 1025.20 1024.85 1024.49 1024.09 1023.61 1023.07 1022.48 1021.89 1021.32 1020.80 1020.32 1019.88 1019.43 1018.95 1018.42 1017.83 1017.23 1016.64 1016.11 1015.68 1015.36 1015.15 1015.02 1014.94 1014.87 1014.79
1033.06 1032.95 1032.59 1032.07 1031.49 1030.94 1030.46 1030.06 1029.70 1029.34 1028.95 1028.51 1028.02 1027.51 1027.01 1026.56 1026.17 1025.82 1025.49 1025.13 1024.71 1024.22 1023.67 1023.08 1022.48 1021.92 1021.40 1020.92 1020.44 1019.95 1019.41 1018.81 1018.16 1017.49 1016.85 1016.28 1015.81 1015.46 1015.23 1015.07 1014.96 1014.86 1014.75
1033.63 1033.46 1033.05 1032.51 1031.93 1031.38 1030.91 1030.51 1030.16 1029.82 1029.44 1029.02 1028.56 1028.08 1027.63 1027.21 1026.83 1026.48 1026.13 1025.74 1025.29 1024.77 1024.20 1023.60 1023.00 1022.45 1021.93 1021.45 1020.96 1020.44 1019.85 1019.20 1018.50 1017.78 1017.09 1016.48 1015.98 1015.60 1015.32 1015.12 1014.96 1014.81 1014.65
1034.26 1034.02 1033.55 1032.97 1032.36 1031.81 1031.34 1030.96 1030.62 1030.29 1029.95 1029.56 1029.13 1028.70 1028.27 1027.87 1027.50 1027.13 1026.74 1026.30 1025.80 1025.24 1024.63 1024.02 1023.43 1022.89 1022.38 1021.90 1021.41 1020.87 1020.26 1019.58 1018.85 1018.10 1017.38 1016.74 1016.20 1015.78 1015.44 1015.18 1014.95 1014.74 1014.53
1034.85 1034.53 1034.02 1033.40 1032.79 1032.24 1031.78 1031.40 1031.08 1030.77 1030.44 1030.08 1029.69 1029.29 1028.88 1028.49 1028.11 1027.71 1027.27 1026.78 1026.23 1025.63 1025.00 1024.37 1023.78 1023.24 1022.75 1022.28 1021.78 1021.24 1020.62 1019.93 1019.19 1018.43 1017.70 1017.04 1016.47 1015.99 1015.60 1015.26 1014.96 1014.68 1014.41
1035.30 1034.93 1034.39 1033.78 1033.18 1032.65 1032.21 1031.85 1031.54 1031.24 1030.93 1030.58 1030.20 1029.81 1029.42 1029.03 1028.62 1028.20 1027.72 1027.19 1026.59 1025.96 1025.31 1024.67 1024.08 1023.55 1023.06 1022.59 1022.09 1021.55 1020.92 1020.24 1019.49 1018.74 1018.01 1017.35 1016.75 1016.24 1015.79 1015.38 1015.00 1014.64 1014.32
1035.55 1035.17 1034.65 1034.07 1033.52 1033.04 1032.64 1032.31 1032.01 1031.71 1031.38 1031.03 1030.64 1030.25 1029.85 1029.45 1029.03 1028.58 1028.09 1027.53 1026.91 1026.26 1025.60 1024.96 1024.37 1023.83 1023.34 1022.85 1022.34 1021.78 1021.16 1020.48 1019.75 1019.02 1018.31 1017.65 1017.05 1016.50 1016.00 1015.53 1015.08 1014.65 1014.26
1035.58 1035.24 1034.78 1034.30 1033.83 1033.43 1033.08 1032.77 1032.47 1032.16 1031.80 1031.42 1031.01 1030.59 1030.18 1029.77 1029.34 1028.89 1028.38 1027.82 1027.20 1026.55 1025.90 1025.26 1024.67 1024.12 1023.60 1023.08 1022.54 1021.96 1021.32 1020.64 1019.93 1019.23 1018.55 1017.92 1017.32 1016.77 1016.23 1015.70 1015.18 1014.68 1014.23
1035.44 1035.18 1034.83 1034.46 1034.12 1033.81 1033.52 1033.24 1032.93 1032.58 1032.19 1031.76 1031.31 1030.87 1030.43 1030.01 1029.58 1029.13 1028.63 1028.09 1027.49 1026.86 1026.22 1025.59 1024.99 1024.41 1023.86 1023.29 1022.71 1022.08 1021.42 1020.74 1020.04 1019.37 1018.73 1018.13 1017.56 1017.00 1016.44 1015.88 1015.30 1014.74 1014.21
1035.22 1035.06 1034.84 1034.61 1034.39 1034.18 1033.95 1033.69 1033.37 1032.99 1032.54 1032.07 1031.58 1031.10 1030.65 1030.22 1029.79 1029.35 1028.87 1028.34 1027.77 1027.16 1026.54 1025.92 1025.31 1024.71 1024.10 1023.49 1022.84 1022.17 1021.47 1020.76 1020.08 1019.43 1018.83 1018.26 1017.72 1017.18 1016.62 1016.02 1015.40 1014.78 1014.18
1035.00 1034.95 1034.86 1034.76 1034.66 1034.53 1034.35 1034.10 1033.77 1033.35 1032.87 1032.35 1031.83 1031.33 1030.87 1030.43 1030.00 1029.56 1029.09 1028.58 1028.03 1027.44 1026.84 1026.22 1025.60 1024.98 1024.33 1023.66 1022.95 1022.22 1021.47 1020.74 1020.05 1019.41 1018.84 1018.31 1017.80 1017.28 1016.72 1016.11 1015.45 1014.78 1014.12
1034.86 1034.90 1034.93 1034.95 1034.93 1034.86 1034.71 1034.45 1034.10 1033.65 1033.14 1032.61 1032.08 1031.57 1031.10 1030.66 1030.23 1029.79 1029.31 1028.80 1028.25 1027.67 1027.08 1026.47 1025.85 1025.20 1024.52 1023.79 1023.03 1022.23 1021.43 1020.66 1019.95 1019.31 1018.74 1018.24 1017.76 1017.26 1016.72 1016.11 1015.43 1014.71 1014.00
1034.81 1034.95 1035.06 1035.15 1035.18 1035.13 1034.98 1034.71 1034.34 1033.88 1033.36 1032.83 1032.32 1031.83 1031.37 1030.93 1030.48 1030.02 1029.52 1028.99 1028.42 1027.84 1027.24 1026.63 1026.01 1025.35 1024.64 1023.88 1023.06 1022.21 1021.35 1020.53 1019.77 1019.11 1018.54 1018.04 1017.58 1017.10 1016.58 1015.98 1015.30 1014.56 1013.81
1034.86 1035.06 1035.23 1035.35 1035.39 1035.32 1035.15 1034.85 1034.46 1034.00 1033.50 1033.01 1032.53 1032.08 1031.65 1031.21 1030.75 1030.26 1029.72 1029.14 1028.54 1027.93 1027.32 1026.70 1026.07 1025.41 1024.69 1023.90 1023.04 1022.14 1021.22 1020.33 1019.52 1018.81 1018.21 1017.70 1017.24 1016.78 1016.28 1015.70 1015.04 1014.31 1013.55
1034.96 1035.21 1035.40 1035.52 1035.53 1035.42 1035.20 1034.87 1034.46 1034.01 1033.56 1033.12 1032.71 1032.32 1031.92 1031.50 1031.03 1030.49 1029.90 1029.26 1028.60 1027.95 1027.31 1026.68 1026.05 1025.39 1024.66 1023.85 1022.96 1022.01 1021.02 1020.07 1019.18 1018.40 1017.75 1017.20 1016.73 1016.28 1015.81 1015.28 1014.66 1013.97 1013.22
1035.05 1035.33 1035.54 1035.63 1035.59 1035.42 1035.14 1034.77 1034.36 1033.93 1033.53 1033.16 1032.83 1032.50 1032.16 1031.76 1031.28 1030.70 1030.05 1029.35 1028.63 1027.92 1027.25 1026.60 1025.96 1025.29 1024.56 1023.73 1022.81 1021.81 1020.77 1019.73 1018.76 1017.90 1017.17 1016.57 1016.08 1015.63 1015.20 1014.72 1014.17 1013.54 1012.85
1035.07 1035.39 1035.60 1035.66 1035.57 1035.34 1035.01 1034.61 1034.18 1033.78 1033.43 1033.14 1032.88 1032.63 1032.34 1031.96 1031.48 1030.87 1030.17 1029.41 1028.63 1027.87 1027.15 1026.47 1025.82 1025.14 1024.40 1023.56 1022.62 1021.57 1020.46 1019.35 1018.29 1017.34 1016.53 1015.86 1015.33 1014.88 1014.47 1014.05 1013.59 1013.04 1012.44
1034.99 1035.36 1035.57 1035.62 1035.49 1035.22 1034.85 1034.42 1034.00 1033.62 1033.31 1033.08 1032.88 1032.69 1032.44 1032.08 1031.60 1030.98 1030.25 1029.44 1028.61 1027.81 1027.05 1026.34 1025.66 1024.96 1024.21 1023.36 1022.40 1021.32 1020.16 1018.98 1017.83 1016.79 1015.89 1015.15 1014.56 1014.09 1013.70 1013.34 1012.95 1012.51 1012.00
1034.81 1035.23 1035.47 1035.52 1035.39 1035.10 1034.71 1034.27 1033.84 1033.48 1033.20 1033.00 1032.84 1032.68 1032.45 1032.11 1031.64 1031.01 1030.26 1029.43 1028.57 1027.72 1026.93 1026.20 1025.49 1024.79 1024.02 1023.16 1022.19 1021.09 1019.90 1018.67 1017.46 1016.33 1015.34 1014.52 1013.86 1013.36 1012.96 1012.63 1012.31 1011.95 1011.53
1034.54 1035.03 1035.32 1035.40 1035.29 1035.01 1034.62 1034.19 1033.76 1033.40 1033.12 1032.92 1032.76 1032.60 1032.37 1032.04 1031.56 1030.94 1030.18 1029.34 1028.47 1027.62 1026.81 1026.05 1025.33 1024.61 1023.84 1022.99 1022.02 1020.93 1019.73 1018.48 1017.23 1016.04 1014.97 1014.06 1013.32 1012.75 1012.32 1011.99 1011.70 1011.40 1011.06
1034.23 1034.78 1035.14 1035.28 1035.21 1034.97 1034.61 1034.19 1033.77 1033.40 1033.10 1032.87 1032.67 1032.47 1032.22 1031.86 1031.37 1030.75 1030.01 1029.18 1028.32 1027.46 1026.64 1025.88 1025.15 1024.43 1023.67 1022.84 1021.90 1020.85 1019.68 1018.45 1017.19 1015.96 1014.82 1013.82 1012.99 1012.33 1011.82 1011.44 1011.14 1010.87 1010.57
1033.91 1034.53 1034.95 1035.15 1035.15 1034.97 1034.66 1034.27 1033.86 1033.47 1033.13 1032.84 1032.58 1032.31 1031.99 1031.59 1031.09 1030.46 1029.73 1028.92 1028.08 1027.23 1026.42 1025.66 1024.93 1024.22 1023.49 1022.71 1021.83 1020.84 1019.75 1018.57 1017.33 1016.09 1014.90 1013.82 1012.87 1012.09 1011.48 1011.01 1010.65 1010.36 1010.07
1033.63 1034.28 1034.76 1035.02 1035.08 1034.98 1034.73 1034.38 1033.99 1033.59 1033.20 1032.83 1032.48 1032.12 1031.72 1031.26 1030.72 1030.08 1029.36 1028.57 1027.75 1026.92 1026.13 1025.37 1024.65 1023.96 1023.28 1022.55 1021.76 1020.87 1019.88 1018.78 1017.60 1016.37 1015.15 1013.99 1012.93 1012.02 1011.26 1010.67 1010.21 1009.86 1009.55
1033.40 1034.07 1034.57 1034.87 1034.99 1034.95 1034.76 1034.47 1034.10 1033.69 1033.26 1032.82 1032.37 1031.92 1031.44 1030.91 1030.32 1029.66 1028.93 1028.16 1027.36 1026.55 1025.76 1025.00 1024.30 1023.64 1022.99 1022.34 1021.64 1020.87 1019.99 1019.00 1017.90 1016.71 1015.47 1014.25 1013.08 1012.03 1011.13 1010.39 1009.81 1009.37 1009.02
1033.22 1033.87 1034.36 1034.68 1034.84 1034.85 1034.72 1034.48 1034.15 1033.74 1033.28 1032.78 1032.26 1031.72 1031.15 1030.55 1029.91 1029.23 1028.50 1027.72 1026.93 1026.12 1025.34 1024.59 1023.88 1023.24 1022.63 1022.04 1021.43 1020.76 1020.00 1019.12 1018.10 1016.97 1015.74 1014.47 1013.22 1012.04 1011.00 1010.12 1009.42 1008.88 1008.47
1033.09 1033.69 1034.14 1034.45 1034.62 1034.66 1034.58 1034.39 1034.09 1033.71 1033.24 1032.72 1032.14 1031.53 1030.90 1030.24 1029.56 1028.84 1028.10 1027.32 1026.52 1025.71 1024.91 1024.14 1023.43 1022.78 1022.19 1021.64 1021.09 1020.51 1019.84 1019.06 1018.13 1017.05 1015.85 1014.56 1013.25 1011.99 1010.84 1009.84 1009.03 1008.40 1007.93
Thickness
5602 5601 5604 5609 5613 5616 5618 5620 5622 5624 5626 5628 5630 5631 5633 5634 5636 5638 5640 5642 5645 5649 5652 5656 5659 5663 5666 5670 5674 5679 5684 5689 5694 5699 5705 5711 5717 5721 5724 5727 5729 5734 5736
5597 5599 5602 5606 5609 5611 5613 5615 5616 5618 5619 5621 5622 5623 5624 5626 5628 5629 5631 5633 5636 5638 5641 5645 5648 5652 5656 5660 5664 5668 5674 5679 5684 5690 5696 5704 5711 5714 5718 5721 5724 5729 5731
5595 5597 5600 5602 5604 5606 5607 5608 5609 5610 5611 5612 5613 5614 5615 5616 5617 5619 5620 5622 5625 5627 5630 5633 5637 5640 5644 5648 5652 5657 5662 5668 5674 5679 5686 5695 5702 5707 5711 5714 5718 5722 5725
5592 5593 5595 5597 5599 5600 5600 5601 5602 5602 5602 5603 5603 5603 5603 5604 5605 5607 5608 5610 5612 5614 5617 5621 5624 5627 5631 5636 5640 5645 5651 5656 5661 5667 5676 5682 5689 5696 5701 5706 5711 5716 5720
5589 5589 5590 5591 5593 5593 5593 5593 5593 5593 5593 5592 5592 5592 5592 5592 5592 5594 5594 5596 5598 5600 5603 5606 5609 5613 5617 5622 5627 5632 5638 5644 5649 5656 5663 5669 5675 5683 5689 5696 5702 5708 5713
5585 5584 5583 5585 5585 5585 5585 5584 5584 5583 5582 5581 5580 5579 5579 5579 5579 5580 5580 5581 5583 5585 5587 5590 5593 5597 5601 5606 5611 5617 5623 5629 5635 5644 5649 5655 5662 5669 5676 5684 5692 5699 5705
5580 5578 5577 5577 5577 5576 5576 5574 5573 5572 5571 5569 5567 5566 5565 5564 5563 5564 5564 5565 5566 5568 5570 5572 5575 5579 5583 5587 5593 5599 5606 5612 5620 5629 5635 5641 5649 5655 5663 5672 5681 5689 5697
5575 5573 5571 5569 5568 5567 5565 5564 5563 5561 5559 5557 5555 5553 5551 5548 5547 5546 5545 5546 5546 5548 5550 5552 5554 5558 5563 5567 5573 5579 5586 5593 5602 5613 5619 5627 5635 5642 5650 5659 5668 5677 5686
5569 5567 5565 5563 5561 5558 5555 5553 5551 5549 5546 5544 5541 5538 5535 5533 5530 5529 5527 5526 5526 5526 5528 5529 5532 5535 5539 5544 5550 5557 5564 5572 5582 5593 5601 5611 5619 5626 5635 5644 5654 5663 5673
5564 5561 5557 5554 5551 5548 5546 5541 5538 5536 5533 5530 5526 5523 5520 5517 5514 5511 5507 5505 5504 5503 5503 5504 5506 5510 5514 5519 5525 5532 5540 5550 5561 5571 5581 5591 5600 5608 5619 5629 5639 5650 5660
5559 5554 5549 5545 5541 5537 5534 5530 5527 5524 5520 5516 5512 5507 5503 5499 5495 5490 5485 5481 5478 5476 5475 5475 5477 5480 5485 5491 5498 5505 5513 5524 5535 5546 5558 5569 5578 5589 5601 5613 5624 5635 5646
5555 5548 5542 5536 5531 5527 5523 5520 5515 5511 5506 5500 5495 5489 5484 5478 5472 5466 5461 5456 5451 5447 5445 5445 5445 5448 5452 5459 5467 5474 5484 5494 5506 5520 5534 5545 5555 5567 5581 5594 5608 5620 5632
5548 5541 5534 5527 5521 5516 5512 5508 5503 5497 5491 5484 5477 5470 5463 5457 5449 5442 5435 5429 5423 5418 5415 5413 5413 5414 5416 5422 5430 5439 5449 5460 5474 5489 5505 5518 5531 5544 5559 5574 5589 5603 5617
5542 5534 5526 5519 5512 5506 5501 5496 5491 5484 5476 5469 5460 5451 5442 5434 5424 5415 5407 5399 5392 5387 5383 5380 5380 5381 5382 5386 5393 5402 5413 5424 5439 5454 5473 5489 5504 5520 5536 5552 5569 5585 5600
5536 5527 5518 5510 5503 5497 5491 5484 5478 5470 5461 5452 5443 5432 5420 5410 5399 5389 5379 5370 5363 5357 5352 5349 5348 5349 5352 5356 5361 5368 5378 5390 5404 5419 5439 5457 5475 5493 5511 5529 5547 5565 5583
5528 5519 5510 5503 5495 5488 5480 5473 5465 5455 5445 5435 5424 5411 5398 5385 5373 5363 5353 5344 5336 5330 5324 5320 5318 5319 5322 5325 5331 5337 5347 5358 5372 5387 5405 5425 5445 5464 5485 5505 5524 5544 5563
5522 5512 5503 5495 5486 5478 5469 5460 5451 5441 5430 5419 5405 5391 5376 5361 5349 5337 5328 5319 5312 5304 5298 5294 5292 5291 5293 5297 5303 5310 5318 5330 5343 5357 5374 5394 5415 5436 5456 5478 5499 5520 5541
5515 5506 5495 5485 5476 5467 5458 5447 5437 5426 5414 5401 5386 5370 5354 5339 5326 5315 5305 5297 5288 5280 5273 5269 5266 5266 5267 5271 5277 5285 5293 5304 5318 5331 5347 5366 5386 5407 5429 5450 5473 5496 5518
5509 5499 5488 5477 5466 5456 5446 5435 5424 5411 5398 5382 5366 5349 5332 5318 5305 5294 5285 5275 5266 5258 5250 5245 5241 5239 5242 5246 5253 5262 5272 5284 5297 5310 5326 5342 5360 5379 5400 5422 5446 5470 5493
5502 5491 5480 5468 5457 5445 5435 5423 5411 5397 5381 5363 5345 5329 5313 5301 5288 5277 5267 5256 5246 5238 5230 5222 5216 5213 5214 5218 5228 5239 5252 5266 5280 5295 5309 5323 5338 5355 5373 5395 5419 5444 5468
5497 5484 5472 5460 5448 5435 5423 5411 5398 5383 5365 5347 5328 5311 5297 5284 5273 5261 5250 5240 5229 5219 5208 5197 5189 5185 5185 5187 5196 5213 5231 5251 5269 5281 5293 5305 5318 5332 5349 5368 5391 5416 5443
5492 5478 5465 5452 5438 5425 5411 5397 5383 5368 5351 5333 5314 5298 5284 5270 5258 5246 5235 5223 5212 5200 5187 5173 5163 5157 5155 5155 5160 5176 5202 5227 5251 5260 5273 5285 5299 5312 5327 5345 5367 5391 5417
5486 5471 5456 5442 5428 5415 5400 5385 5370 5355 5338 5321 5304 5288 5273 5259 5246 5233 5221 5208 5195 5180 5167 5156 5145 5136 5132 5131 5130 5138 5157 5188 5204 5232 5251 5268 5281 5294 5309 5326 5346 5368 5394
5479 5462 5447 5433 5419 5405 5390 5375 5360 5343 5327 5309 5292 5278 5264 5250 5236 5223 5210 5196 5182 5167 5154 5144 5132 5121 5113 5111 5113 5117 5129 5147 5169 5202 5227 5246 5262 5279 5295 5310 5328 5350 5374
5471 5455 5439 5424 5410 5395 5380 5364 5348 5331 5314 5298 5283 5269 5256 5242 5229 5215 5201 5187 5172 5158 5147 5136 5127 5117 5107 5102 5102 5105 5115 5130 5150 5174 5202 5227 5249 5267 5283 5298 5314 5334 5357
5463 5447 5431 5416 5402 5386 5371 5354 5337 5321 5304 5289 5275 5262 5249 5236 5223 5209 5194 5180 5165 5152 5142 5134 5126 5118 5110 5104 5101 5102 5109 5121 5139 5161 5185 5209 5233 5254 5272 5288 5304 5321 5342